| time (UTC) | temp F | wind direction | speed MPH | gust MPH | rain 1hr in | rain 24hr in | rain mn in | humidity % | barometer mb |
| 20260906000027 | 77 | 355 | 0.0 | 0.0 | 0.00 | 0.00 | 0.00 | 100 | 1010.9 |
| 20260905234521 | 78 | 355 | 0.0 | 0.0 | 0.00 | 0.00 | 0.00 | 100 | 1010.6 |
| 20260905233018 | 78 | 360 | 1.0 | 0.0 | 0.00 | 0.00 | 0.00 | 100 | 1010.6 |
| 20260905231522 | 79 | 39 | 1.0 | 0.0 | 0.00 | 0.00 | 0.00 | 100 | 1010.2 |
| 20260905230009 | 79 | 5 | 1.0 | 0.0 | 0.00 | 0.00 | 0.00 | 100 | 1010.2 |
| 20260905224505 | 79 | 360 | 1.0 | 0.0 | 0.00 | 0.00 | 0.00 | 100 | 1010.3 |
| 20260905223100 | 79 | 344 | 3.0 | 0.0 | 0.00 | 0.00 | 0.00 | 100 | 1010.4 |
| 20260905221557 | 80 | 355 | 4.0 | 0.0 | 0.00 | 0.00 | 0.00 | 100 | 1010.2 |
| 20260905214547 | 83 | 11 | 3.0 | 0.0 | 0.00 | 0.00 | 0.00 | 100 | 1009.6 |
| 20260905213043 | 82 | 348 | 3.0 | 0.0 | 0.00 | 0.00 | 0.00 | 100 | 1009.5 |
| 20260905211540 | 81 | 281 | 4.0 | 0.0 | 0.00 | 0.00 | 0.00 | 100 | 1009.4 |
| 20260905210046 | 81 | 19 | 3.0 | 0.0 | 0.00 | 0.00 | 0.00 | 100 | 1009.1 |
| 20260905204535 | 81 | 57 | 2.0 | 0.0 | 0.00 | 0.00 | 0.00 | 100 | 1009.2 |
| 20260905203026 | 81 | 11 | 3.0 | 0.0 | 0.00 | 0.00 | 0.00 | 100 | 1009.4 |
| 20260905201521 | 82 | 314 | 5.0 | 0.0 | 0.00 | 0.00 | 0.00 | 100 | 1009.3 |
| 20260905200023 | 82 | 17 | 3.0 | 0.0 | 0.00 | 0.00 | 0.00 | 100 | 1009.7 |
| 20260905194512 | 81 | 5 | 4.0 | 0.0 | 0.00 | 0.00 | 0.00 | 100 | 1009.8 |
| 20260905193008 | 81 | 360 | 3.0 | 0.0 | 0.00 | 0.00 | 0.00 | 100 | 1009.6 |
| 20260905191504 | 81 | 105 | 3.0 | 0.0 | 0.00 | 0.00 | 0.00 | 100 | 1009.9 |
| 20260905190100 | 81 | 355 | 4.0 | 0.0 | 0.00 | 0.00 | 0.00 | 100 | 1010.0 |
| 20260905184600 | 81 | 24 | 2.0 | 0.0 | 0.00 | 0.00 | 0.00 | 100 | 1010.2 |
| 20260905183051 | 81 | 341 | 3.0 | 0.0 | 0.00 | 0.00 | 0.00 | 100 | 1010.5 |
| 20260905181547 | 81 | 11 | 1.0 | 0.0 | 0.00 | 0.00 | 0.00 | 100 | 1010.6 |
| 20260905180042 | 81 | 317 | 3.0 | 0.0 | 0.00 | 0.00 | 0.00 | 100 | 1010.6 |
| 20260905174538 | 81 | 46 | 3.0 | 0.0 | 0.00 | 0.00 | 0.00 | 100 | 1010.7 |
| 20260905173035 | 80 | 294 | 2.0 | 0.0 | 0.00 | 0.00 | 0.00 | 100 | 1011.0 |
| 20260905171537 | 80 | 329 | 2.0 | 0.0 | 0.00 | 0.00 | 0.00 | 100 | 1011.1 |
| 20260905170026 | 79 | 272 | 3.0 | 0.0 | 0.00 | 0.00 | 0.00 | 100 | 1011.0 |
| 20260905164520 | 79 | 276 | 2.0 | 0.0 | 0.00 | 0.00 | 0.00 | 100 | 1011.3 |
| 20260905163020 | 79 | 293 | 3.0 | 0.0 | 0.00 | 0.00 | 0.00 | 100 | 1011.2 |
| 20260905161512 | 78 | 19 | 2.0 | 0.0 | 0.00 | 0.00 | 0.00 | 100 | 1011.1 |
| 20260905160007 | 78 | 355 | 3.0 | 0.0 | 0.00 | 0.00 | 0.00 | 100 | 1011.7 |
| 20260905154502 | 78 | 340 | 1.0 | 0.0 | 0.00 | 0.00 | 0.00 | 100 | 1011.6 |
| 20260905153059 | 77 | 321 | 3.0 | 0.0 | 0.00 | 0.00 | 0.00 | 100 | 1011.8 |
| 20260905151555 | 78 | 287 | 2.0 | 0.0 | 0.00 | 0.00 | 0.00 | 100 | 1011.9 |
| 20260905144545 | 76 | 5 | 3.0 | 0.0 | 0.00 | 0.00 | 0.00 | 100 | 1011.6 |
| 20260905143043 | 75 | 49 | 2.0 | 0.0 | 0.00 | 0.00 | 0.00 | 100 | 1011.4 |
| 20260905141537 | 74 | 34 | 3.0 | 0.0 | 0.00 | 0.00 | 0.00 | 100 | 1011.1 |
| 20260905140032 | 73 | 43 | 4.0 | 0.0 | 0.00 | 0.00 | 0.00 | 100 | 1011.1 |
| 20260905134528 | 73 | 41 | 3.0 | 0.0 | 0.00 | 0.00 | 0.00 | 100 | 1011.2 |
| 20260905133023 | 73 | 30 | 3.0 | 0.0 | 0.00 | 0.00 | 0.00 | 100 | 1011.2 |
| 20260905131532 | 73 | 95 | 3.0 | 0.0 | 0.00 | 0.00 | 0.00 | 100 | 1011.4 |
| 20260905130015 | 73 | 80 | 3.0 | 0.0 | 0.00 | 0.00 | 0.00 | 100 | 1010.9 |
| 20260905124510 | 73 | 59 | 4.0 | 0.0 | 0.00 | 0.00 | 0.00 | 100 | 1010.8 |
| 20260905123006 | 73 | 5 | 3.0 | 0.0 | 0.00 | 0.00 | 0.00 | 100 | 1010.8 |
| 20260905121502 | 73 | 360 | 4.0 | 0.0 | 0.00 | 0.00 | 0.00 | 100 | 1010.9 |
| 20260905120058 | 72 | 360 | 2.0 | 0.0 | 0.00 | 0.00 | 0.00 | 100 | 1010.8 |
| 20260905114604 | 72 | 346 | 2.0 | 0.0 | 0.00 | 0.00 | 0.00 | 100 | 1010.7 |
| 20260905113049 | 72 | 351 | 1.0 | 0.0 | 0.00 | 0.00 | 0.00 | 100 | 1010.6 |
| 20260905111617 | 72 | 355 | 1.0 | 0.0 | 0.00 | 0.00 | 0.00 | 100 | 1010.5 |
| 20260905110042 | 72 | 355 | 2.0 | 0.0 | 0.00 | 0.00 | 0.00 | 100 | 1010.2 |
| 20260905104543 | 72 | 19 | 1.0 | 0.0 | 0.00 | 0.00 | 0.00 | 100 | 1010.1 |
| 20260905103033 | 72 | 336 | 0.0 | 0.0 | 0.00 | 0.00 | 0.00 | 100 | 1009.9 |
| 20260905101528 | 72 | 335 | 0.0 | 0.0 | 0.00 | 0.00 | 0.00 | 100 | 1009.8 |
| 20260905100024 | 72 | 341 | 1.0 | 0.0 | 0.00 | 0.00 | 0.00 | 100 | 1009.6 |
| 20260905094525 | 72 | 321 | 1.0 | 0.0 | 0.00 | 0.00 | 0.00 | 100 | 1009.7 |
| 20260905093014 | 72 | 311 | 1.0 | 0.0 | 0.00 | 0.00 | 0.00 | 100 | 1009.7 |
| 20260905091510 | 72 | 294 | 0.0 | 0.0 | 0.00 | 0.00 | 0.00 | 100 | 1009.6 |
| 20260905090007 | 72 | 294 | 0.0 | 0.0 | 0.00 | 0.00 | 0.00 | 100 | 1009.6 |
| 20260905084608 | 73 | 294 | 0.0 | 0.0 | 0.00 | 0.00 | 0.00 | 100 | 1009.6 |
| 20260905083056 | 73 | 293 | 0.0 | 0.0 | 0.00 | 0.00 | 0.00 | 100 | 1009.6 |
| 20260905081553 | 73 | 255 | 0.0 | 0.0 | 0.00 | 0.00 | 0.00 | 100 | 1009.9 |
| 20260905080104 | 73 | 318 | 3.0 | 0.0 | 0.00 | 0.00 | 0.00 | 100 | 1009.9 |
| 20260905074556 | 73 | 283 | 1.0 | 0.0 | 0.00 | 0.00 | 0.00 | 100 | 1009.8 |
| 20260905073039 | 73 | 302 | 2.0 | 0.0 | 0.00 | 0.00 | 0.00 | 100 | 1009.9 |
| 20260905071537 | 73 | 280 | 2.0 | 0.0 | 0.00 | 0.00 | 0.00 | 100 | 1010.1 |
| 20260905070031 | 73 | 298 | 3.0 | 0.0 | 0.00 | 0.00 | 0.00 | 100 | 1010.2 |
| 20260905064526 | 73 | 317 | 3.0 | 0.0 | 0.00 | 0.00 | 0.00 | 100 | 1010.2 |
| 20260905063023 | 74 | 297 | 3.0 | 0.0 | 0.00 | 0.00 | 0.00 | 100 | 1010.5 |
| 20260905061523 | 74 | 323 | 4.0 | 0.0 | 0.00 | 0.00 | 0.00 | 100 | 1010.7 |
| 20260905060017 | 74 | 234 | 2.0 | 0.0 | 0.00 | 0.00 | 0.00 | 100 | 1010.7 |
| 20260905054513 | 74 | 263 | 3.0 | 0.0 | 0.00 | 0.00 | 0.00 | 100 | 1010.7 |
| 20260905053004 | 74 | 283 | 3.0 | 0.0 | 0.00 | 0.00 | 0.00 | 100 | 1010.8 |
| 20260905051610 | 74 | 307 | 3.0 | 0.0 | 0.00 | 0.00 | 0.00 | 100 | 1011.1 |
| 20260905044552 | 74 | 288 | 3.0 | 0.0 | 0.00 | 0.00 | 0.00 | 100 | 1011.3 |
| 20260905043048 | 75 | 284 | 3.0 | 0.0 | 0.00 | 0.00 | 0.00 | 100 | 1011.3 |
| 20260905041543 | 75 | 324 | 2.0 | 0.0 | 0.00 | 0.00 | 0.00 | 100 | 1011.2 |
| 20260905040038 | 75 | 284 | 2.0 | 0.0 | 0.00 | 0.00 | 0.00 | 100 | 1011.3 |
| 20260905034536 | 75 | 281 | 2.0 | 0.0 | 0.00 | 0.00 | 0.09 | 100 | 1011.3 |
| 20260905033029 | 75 | 256 | 1.0 | 0.0 | 0.00 | 0.00 | 0.09 | 100 | 1011.6 |
| 20260905031535 | 76 | 257 | 2.0 | 0.0 | 0.00 | 0.00 | 0.09 | 100 | 1011.5 |
| 20260905030021 | 76 | 274 | 2.0 | 0.0 | 0.00 | 0.00 | 0.09 | 100 | 1011.5 |
| 20260905024537 | 76 | 225 | 1.0 | 0.0 | 0.00 | 0.00 | 0.09 | 100 | 1011.5 |
| 20260905023019 | 76 | 250 | 1.0 | 0.0 | 0.00 | 0.00 | 0.09 | 100 | 1011.3 |
| 20260905021508 | 76 | 228 | 1.0 | 0.0 | 0.00 | 0.00 | 0.09 | 100 | 1011.2 |
| 20260905020004 | 77 | 244 | 1.0 | 0.0 | 0.00 | 0.00 | 0.09 | 100 | 1011.3 |
| 20260905014600 | 77 | 278 | 0.0 | 0.0 | 0.00 | 0.00 | 0.09 | 100 | 1011.1 |
| 20260905013116 | 77 | 278 | 0.0 | 0.0 | 0.00 | 0.00 | 0.09 | 100 | 1011.0 |
| 20260905011550 | 77 | 277 | 1.0 | 0.0 | 0.00 | 0.00 | 0.09 | 100 | 1010.7 |
| 20260905010053 | 78 | 267 | 0.0 | 0.0 | 0.00 | 0.00 | 0.09 | 100 | 1010.5 |
| 20260905004542 | 78 | 267 | 1.0 | 0.0 | 0.00 | 0.00 | 0.09 | 100 | 1010.6 |
| 20260905003037 | 78 | 269 | 0.0 | 0.0 | 0.00 | 0.00 | 0.09 | 100 | 1010.8 |
| 20260905001533 | 78 | 272 | 0.0 | 0.0 | 0.00 | 0.00 | 0.09 | 100 | 1010.7 |